Flag Weather past 2 weeks in Spartanburg, South Carolina, U.S.A.

Now
50 °F

Clear.


Feels Like: 48 °F
Forecast: 37 / 53 °F
Wind: 6 mph from Southwest

Location: Spartanburg Memorial

Current Time: Nov 26, 2014 at 8:51:13 PM

Latest Report: Nov 26, 2014 at 8:35 PM


Visibility: 10 mi

Pressure: 30.01 "Hg

Humidity: 50%

Dew point: 32 °F

Location of SpartanburgLocation

Historic Weather in Spartanburg — Graph

°F

Spartanburg temperature yesterday

Maximum temperature yesterday: 64 °F (at 12:15 AM)
Minimum temperature yesterday: 50 °F (at 11:15 PM)
Average temperature yesterday: 57 °F

Past Weeks' High & Low Weather Summary

 TemperatureHumidityPressure
High79 °F (Nov 12, 2:35 PM)100% (Nov 12, 3:35 AM)30.55 "Hg (Nov 12, 3:35 AM)
Low19 °F (Nov 19, 6:35 AM)12% (Nov 21, 4:35 PM)29.66 "Hg (Nov 17, 2:15 PM)
Average47 °F58%30.12 "Hg
* Reported Nov 11 7:15 PM — Nov 26 7:55 PM, Spartanburg, Weather by CustomWeather, © 2014

Note: Actual official high and low records may vary slightly from our data, if they occured in-between our weather recording intervals... More about our weather records

Advertising

Spartanburg weather history for previous 24 hours

 ConditionsComfort  
Time TempWeatherWind HumidityBarometerVisibility
7:55 PM
Nov 26
50 °FClear.5 mph58%30.00 "Hg10 mi
7:35 PM50 °FClear.5 mph62%30.01 "Hg10 mi
6:35 PM50 °FClear.No wind76%30.00 "Hg10 mi
6:15 PM50 °FClear.No wind76%29.99 "Hg10 mi
5:55 PM52 °FClear.No wind67%30.00 "Hg10 mi
5:35 PM54 °FClear.No wind63%29.99 "Hg10 mi
5:15 PM54 °FSunny.No wind63%29.99 "Hg10 mi
4:55 PM55 °FScattered clouds.5 mph59%29.99 "Hg10 mi
4:35 PM55 °FScattered clouds.No wind59%29.98 "Hg10 mi
3:55 PM55 °FSunny.5 mph59%29.99 "Hg10 mi
3:35 PM57 °FSunny.3 mph55%29.98 "Hg10 mi
3:15 PM57 °FSunny.5 mph55%29.98 "Hg10 mi
2:55 PM55 °FSunny.7 mph59%29.98 "Hg10 mi
2:35 PM55 °FSunny.7 mph63%29.99 "Hg10 mi
2:15 PM55 °FScattered clouds.8 mph63%29.98 "Hg10 mi
1:55 PM55 °FScattered clouds.5 mph63%29.99 "Hg10 mi
1:35 PM55 °FBroken clouds.7 mph63%29.99 "Hg10 mi
1:15 PM55 °FMostly cloudy.7 mph67%29.99 "Hg10 mi
12:55 PM54 °FBroken clouds.No wind67%30.00 "Hg10 mi
12:35 PM54 °FPartly sunny.5 mph67%30.01 "Hg10 mi
12:15 PM52 °FPartly sunny.3 mph77%30.01 "Hg10 mi
11:55 AM52 °FScattered clouds.3 mph72%30.03 "Hg10 mi
11:35 AM52 °FScattered clouds.7 mph82%30.03 "Hg10 mi
11:15 AM50 °FMostly cloudy.7 mph88%30.03 "Hg10 mi
10:55 AM50 °FBroken clouds.6 mph94%30.02 "Hg10 mi
10:35 AM48 °FSunny.5 mph100%30.02 "Hg10 mi
10:15 AM48 °FScattered clouds.3 mph100%30.01 "Hg10 mi
9:55 AM46 °FPartly sunny.No windN/A30.00 "Hg10 mi
9:35 AM46 °FScattered clouds.No windN/A30.00 "Hg10 mi
9:15 AM46 °FDrizzle. Broken clouds.5 mphN/A30.00 "Hg10 mi
8:55 AM46 °FRain. More clouds than sun.3 mphN/A30.02 "Hg7 mi
8:35 AM46 °FHeavy rain. Cloudy.No windN/A30.02 "Hg7 mi
8:15 AM46 °FRain. Mostly cloudy.6 mphN/A30.02 "Hg7 mi
7:55 AM46 °FRain. Low clouds.5 mphN/A30.02 "Hg7 mi
7:35 AM46 °FRain. Low clouds.3 mphN/A29.99 "Hg7 mi
7:15 AM46 °FRain. Low clouds.No windN/A29.98 "Hg7 mi
6:55 AM46 °FLight rain. Mostly cloudy.No windN/A29.96 "Hg7 mi
6:35 AM46 °FRain. Mostly cloudy.No windN/A29.96 "Hg10 mi
6:15 AM46 °FLight rain. Mostly cloudy.5 mphN/A29.94 "Hg10 mi
5:55 AM46 °FRain. Low clouds.6 mphN/A29.93 "Hg10 mi
5:35 AM46 °FRain. Overcast.6 mphN/A29.92 "Hg10 mi
5:15 AM46 °FLight rain. Mostly cloudy.No windN/A29.96 "Hg7 mi
4:55 AM46 °FRain. Overcast.3 mphN/A29.96 "Hg7 mi
4:35 AM46 °FRain. Overcast.7 mph100%29.95 "Hg7 mi
4:15 AM46 °FRain. Mostly cloudy.7 mph100%29.96 "Hg10 mi
3:55 AM46 °FRain. Mostly cloudy.9 mph100%29.96 "Hg10 mi
3:35 AM46 °FLight rain. Overcast.9 mph100%29.96 "Hg10 mi
3:15 AM46 °FLight rain. Mostly cloudy.9 mph100%29.95 "Hg10 mi
2:55 AM46 °FRain. Overcast.9 mph100%29.99 "Hg7 mi
2:35 AM46 °FRain. Overcast.7 mph100%30.00 "Hg10 mi
2:15 AM48 °FRain. Mostly cloudy.7 mph100%29.98 "Hg10 mi
1:55 AM48 °FRain. Mostly cloudy.10 mph100%29.96 "Hg10 mi
1:35 AM48 °FRain. Overcast.8 mph100%29.97 "Hg10 mi
1:15 AM50 °FLight rain. Overcast.7 mph100%29.99 "Hg10 mi
12:55 AM50 °FRain. Overcast.5 mph100%30.00 "Hg10 mi
12:35 AM50 °FLight rain. Overcast.5 mph100%30.03 "Hg10 mi
12:15 AM50 °FLight rain. Partly cloudy.3 mphN/A30.02 "Hg10 mi
11:55 PM
Nov 25
50 °FLight rain. Passing clouds.No windN/A30.04 "Hg10 mi
11:35 PM50 °FLight rain. Overcast.No wind100%30.04 "Hg7 mi
11:15 PM50 °FRain. Partly cloudy.No wind100%30.06 "Hg7 mi
10:35 PM52 °FPassing clouds.No wind77%30.05 "Hg10 mi
9:55 PM54 °FLight rain. Partly cloudy.3 mph67%30.06 "Hg10 mi
9:35 PM54 °FPassing clouds.No wind63%30.05 "Hg10 mi
9:15 PM54 °FClear.5 mph63%30.04 "Hg10 mi
8:55 PM55 °FClear.No wind59%30.05 "Hg10 mi
8:35 PM54 °FClear.No wind63%30.05 "Hg10 mi
8:15 PM55 °FPassing clouds.3 mph59%30.05 "Hg10 mi
Weather by CustomWeather, © 2014

See weather overviewHow to use our weather pages